This is the latest recevied weather packets stored in our database for station/object DC0PP-10. If no packets are shown the sender has not sent any weather packets the latest 10 day(s).
| Time | Temp. | Humidity | Pressure | Rain* | Wind** | Luminosity | Snow |
|---|---|---|---|---|---|---|---|
| 1778116252 | 12.78° C | 94% | 1013.3 hPa | - | - | - | - |
| 1778115352 | 12.78° C | 95% | 1013.3 hPa | - | - | - | - |
| 1778114452 | 12.78° C | 98% | 1013.2 hPa | - | - | - | - |
| 1778113555 | 13.33° C | 97% | 1013.2 hPa | - | - | - | - |
| 1778112655 | 13.33° C | 92% | 1013 hPa | - | - | - | - |
| 1778111755 | 13.33° C | 94% | 1012.9 hPa | - | - | - | - |
| 1778110854 | 12.78° C | 95% | 1012.9 hPa | - | - | - | - |
| 1778109954 | 12.78° C | 96% | 1012.8 hPa | - | - | - | - |
| 1778109054 | 12.78° C | 96% | 1012.7 hPa | - | - | - | - |
| 1778108154 | 12.78° C | 97% | 1012.7 hPa | - | - | - | - |
| 1778107254 | 13.33° C | 97% | 1012.6 hPa | - | - | - | - |
| 1778106354 | 13.33° C | 96% | 1012.6 hPa | - | - | - | - |
| 1778105454 | 13.33° C | 96% | 1012.6 hPa | - | - | - | - |
| 1778104553 | 13.33° C | 95% | 1012.4 hPa | - | - | - | - |
| 1778103653 | 12.78° C | 96% | 1012.5 hPa | - | - | - | - |
| 1778102753 | 13.33° C | 96% | 1012.4 hPa | - | - | - | - |
| 1778101853 | 13.33° C | 97% | 1012.5 hPa | - | - | - | - |
| 1778100953 | 13.33° C | 96% | 1012.4 hPa | - | - | - | - |
| 1778100053 | 13.33° C | 96% | 1012.4 hPa | - | - | - | - |
| 1778099152 | 13.33° C | 96% | 1012.4 hPa | - | - | - | - |
| 1778098252 | 13.33° C | 97% | 1012.3 hPa | - | - | - | - |
| 1778097352 | 13.33° C | 95% | 1012.2 hPa | - | - | - | - |
| 1778096452 | 13.89° C | 93% | 1011.9 hPa | - | - | - | - |
| 1778095552 | 13.89° C | 94% | 1011.8 hPa | - | - | - | - |
| 1778094652 | 13.33° C | 94% | 1011.6 hPa | - | - | - | - |
* Rain since midnight (hover to see other rain measurements)
** Current wind speed in m/s (hover to see current wind gust speed)